User: anonymous   Login
Location: Angwan Shehu
(11.2514°N, 7.4613°E)
Time: 22:39:51
(UTC+00:00)
Language:

Meteor 2-11 Rocket - Orbit

View from above orbital plane
View from above orbital plane
View from above satellite
View from above satellite

Ground track
Ground track

The orbit data is extracted from the following two-line orbital elements,

1 15100U 84072B   20023.48453477 +.00000028 +00000-0 +12092-4 0  9995
2 15100 082.5306 106.2101 0011640 192.3480 167.7397 13.84441256796171
Epoch (UTC): 23 January 2020 11:37:43
Eccentricity: 0.0011640
inclination: 82.5306°
perigee height: 939 km
apogee height: 957 km
right ascension of ascending node: 106.2101°
argument of perigee: 192.3480°
revolutions per day: 13.84441256
mean anomaly at epoch: 167.7397°
orbit number at epoch: 79617

The dashed part of the orbit path shows where the satellite is in the earth's shadow,  

DLR